Location: Newark
(53.5628°N, 20.9853°E)
Time: 01:20:49
(UTC+00:00)

Envisat - Visible Passes

Search period start: 01 October 2020 00:00
Search period end: 11 October 2020 00:00
Orbit: 764 x 766 km, 98.1° (Epoch: 30 September)

Date Brightness Start Highest point End Pass type
(mag) Time Alt. Az. Time Alt. Az. Time Alt. Az.
01 Oct 6.5 03:07:38 10° ENE 03:09:40 12° E 03:11:40 10° ESE visible
02 Oct 6.2 17:10:12 10° SW 17:13:31 17° W 17:16:52 10° NW visible
03 Oct 6.1 03:31:50 10° NE 03:35:30 19° E 03:39:08 10° SE visible
04 Oct 6.7 17:38:18 10° W 17:39:23 11° W 17:40:28 10° WNW visible
05 Oct 5.3 03:56:45 10° NNE 04:01:13 30° E 04:05:40 10° SSE visible
05 Oct 6.0 16:58:13 10° SW 17:02:00 21° W 17:05:50 10° NW visible
06 Oct 6.2 03:20:51 10° NE 03:23:58 16° E 03:27:05 10° SE visible
07 Oct 6.4 17:25:26 10° WSW 17:27:49 13° W 17:30:13 10° NW visible
08 Oct 5.6 03:45:33 10° NE 03:49:45 25° E 03:53:55 10° SSE visible
08 Oct 5.6 16:46:21 10° SSW 16:50:31 25° W 16:54:43 10° NW visible
09 Oct 6.4 03:10:03 10° NE 03:12:26 13° E 03:14:48 10° ESE visible
10 Oct 4.7 04:10:38 10° NNE 04:15:24 39° E 04:20:09 10° SSE visible
10 Oct 6.2 17:13:10 10° SW 17:16:17 16° W 17:19:25 10° NW visible
